Date String (YYYY-MM-DD hh:mm:ss) UTC,Instrument flags,Ambient pressure (hPa),Sample flow (lpm),Bypass flow (lpm),Sample temperature (°C),Ambient temperature (°C),ASC tube jacket temperature (°C),LED temperature (°C),Box temperature (°C),Sample RH (%),Span deviation,Mass concentration (μg/m³),Mass concentration (μg/m³),Mass concentration (μg/m³)
DateTimeUTC,F1_M11,P_M11,Q1_M11,Q2_M11,T1_M11,T2_M11,T3_M11,T4_M11,T5_M11,U1_M11,ZSPAN_M11,X0_M11,X2_M11,X1_M11
2021-11-29 11:00:00,,0828.1,5.01,0.00,29.1,28.3,00.0,38.1,30.9,11.4,0000.0,0000.69,0000.36,0000.16
2021-11-29 11:01:00,,0828.2,5.01,0.00,29.1,28.3,00.0,38.1,30.9,11.4,0000.0,0000.74,0000.38,0000.16
2021-11-29 11:02:00,,0828.2,5.00,0.00,29.1,28.3,00.0,38.1,30.9,11.4,0000.0,0000.76,0000.39,0000.17
2021-11-29 11:03:00,,0828.2,5.00,0.00,29.1,28.3,00.0,38.1,30.9,11.4,0000.0,0000.79,0000.39,0000.17
2021-11-29 11:04:00,,0828.2,5.00,0.00,29.1,28.3,00.0,38.1,30.9,11.4,0000.0,0000.78,0000.38,0000.16
2021-11-29 11:05:00,,0828.3,4.99,0.00,29.1,28.3,00.0,38.1,30.9,11.4,0000.0,0000.73,0000.36,0000.17
2021-11-29 11:06:00,,0828.2,5.00,0.00,29.1,28.3,00.0,38.1,30.9,11.4,0000.0,0000.70,0000.35,0000.17
2021-11-29 11:07:00,,0828.2,5.01,0.00,29.1,28.3,00.0,38.1,30.9,11.4,0000.0,0000.87,0000.33,0000.17
2021-11-29 11:08:00,,0828.2,4.99,0.00,29.1,28.3,00.0,38.1,30.9,11.4,0000.0,0002.12,0000.33,0000.17
2021-11-29 11:09:00,,0828.1,5.01,0.00,29.1,28.3,00.0,38.1,30.9,11.4,0000.0,0002.18,0000.31,0000.17
2021-11-29 11:10:00,,0828.1,5.02,0.00,29.2,28.3,00.0,38.1,30.9,11.4,0000.0,0002.07,0000.27,0000.17
2021-11-29 11:11:00,,0828.1,5.00,0.00,29.2,28.3,00.0,38.1,30.9,11.4,0000.0,0002.04,0000.26,0000.17
2021-11-29 11:12:00,,0828.1,4.99,0.00,29.2,28.3,00.0,38.1,31.0,11.4,0000.0,0001.97,0000.24,0000.17
2021-11-29 11:13:00,,0828.1,4.98,0.00,29.2,28.3,00.0,38.1,31.0,11.4,0000.0,0001.93,0000.23,0000.16
2021-11-29 11:14:00,,0828.2,5.02,0.00,29.2,28.3,00.0,38.1,30.9,11.3,0000.0,0001.91,0000.22,0000.15
2021-11-29 11:15:00,,0828.2,4.98,0.00,29.2,28.3,00.0,38.1,30.9,11.3,0000.0,0002.05,0000.26,0000.15
2021-11-29 11:16:00,,0828.2,5.01,0.00,29.2,28.4,00.0,38.1,30.9,11.3,0000.0,0002.13,0000.28,0000.15
2021-11-29 11:17:00,,0828.1,5.01,0.00,29.2,28.4,00.0,38.1,30.9,11.3,0000.0,0002.37,0000.32,0000.15
2021-11-29 11:18:00,,0828.1,4.99,0.00,29.2,28.4,00.0,38.1,30.9,11.3,0000.0,0002.26,0000.33,0000.16
2021-11-29 11:19:00,,0828.1,5.00,0.00,29.2,28.4,00.0,38.1,31.0,11.2,0000.0,0000.91,0000.31,0000.16
2021-11-29 11:20:00,,0828.2,5.01,0.00,29.2,28.4,00.0,38.1,31.0,11.3,0000.0,0000.90,0000.31,0000.16
2021-11-29 11:21:00,,0828.1,5.01,0.00,29.2,28.4,00.0,38.2,30.9,11.3,0000.0,0000.93,0000.32,0000.15
2021-11-29 11:22:00,,0828.2,4.99,0.00,29.2,28.3,00.0,38.2,30.9,11.3,0000.0,0000.95,0000.33,0000.16
2021-11-29 11:23:00,,0828.1,5.00,0.00,29.2,28.3,00.0,38.2,30.9,11.3,0000.0,0000.95,0000.33,0000.16
2021-11-29 11:24:00,,0828.2,4.98,0.00,29.2,28.3,00.0,38.1,30.9,11.3,0000.0,0000.95,0000.33,0000.16
2021-11-29 11:25:00,,0828.2,5.02,0.00,29.2,28.3,00.0,38.2,30.9,11.3,0000.0,0000.94,0000.33,0000.16
2021-11-29 11:26:00,,0828.2,5.00,0.00,29.1,28.3,00.0,38.2,30.9,11.3,0000.0,0000.83,0000.30,0000.17
2021-11-29 11:27:00,,0828.2,4.99,0.00,29.1,28.3,00.0,38.1,30.9,11.3,0000.0,0000.71,0000.26,0000.16
2021-11-29 11:28:00,,0828.2,4.98,0.00,29.2,28.3,00.0,38.1,30.9,11.3,0000.0,0000.49,0000.22,0000.16
2021-11-29 11:29:00,,0828.2,5.01,0.00,29.2,28.3,00.0,38.1,30.9,11.3,0000.0,0000.41,0000.21,0000.15
2021-11-29 11:30:00,,0828.2,4.99,0.00,29.2,28.3,00.0,38.1,30.9,11.3,0000.0,0000.41,0000.22,0000.15
2021-11-29 11:31:00,,0828.1,5.00,0.00,29.2,28.3,00.0,38.1,30.9,11.3,0000.0,0000.37,0000.24,0000.15
2021-11-29 11:32:00,,0828.1,5.01,0.00,29.2,28.3,00.0,38.1,30.9,11.3,0000.0,0000.40,0000.23,0000.16
2021-11-29 11:33:00,,0828.2,4.99,0.00,29.2,28.3,00.0,38.1,30.9,11.3,0000.0,0000.44,0000.24,0000.16
2021-11-29 11:34:00,,0828.2,4.99,0.00,29.2,28.3,00.0,38.1,30.9,11.4,0000.0,0000.49,0000.25,0000.15
2021-11-29 11:35:00,,0828.2,5.02,0.00,29.2,28.3,00.0,38.1,30.9,11.4,0000.0,0000.57,0000.28,0000.16
2021-11-29 11:36:00,,0828.3,4.99,0.00,29.2,28.3,00.0,38.1,30.9,11.4,0000.0,0000.63,0000.28,0000.16
2021-11-29 11:37:00,,0828.3,5.01,0.00,29.2,28.3,00.0,38.1,30.9,11.3,0000.0,0000.66,0000.28,0000.16
2021-11-29 11:38:00,,0828.2,4.99,0.00,29.2,28.3,00.0,38.1,30.9,11.3,0000.0,0000.66,0000.28,0000.16
2021-11-29 11:39:00,,0828.3,5.00,0.00,29.2,28.4,00.0,38.1,30.9,11.3,0000.0,0000.69,0000.30,0000.15
2021-11-29 11:40:00,,0828.4,5.01,0.00,29.2,28.4,00.0,38.1,30.9,11.3,0000.0,0000.69,0000.30,0000.15
2021-11-29 11:41:00,,0828.3,4.99,0.00,29.2,28.4,00.0,38.2,30.9,11.3,0000.0,0000.66,0000.28,0000.15
2021-11-29 11:42:00,,0828.2,5.00,0.00,29.2,28.4,00.0,38.2,30.9,11.3,0000.0,0000.61,0000.26,0000.15
2021-11-29 11:43:00,,0828.2,5.02,0.00,29.2,28.4,00.0,38.2,30.9,11.3,0000.0,0000.59,0000.27,0000.15
2021-11-29 11:44:00,,0828.2,4.99,0.00,29.2,28.3,00.0,38.2,31.0,11.3,0000.0,0000.54,0000.26,0000.15
2021-11-29 11:45:00,,0828.3,5.00,0.00,29.2,28.4,00.0,38.2,31.0,11.3,0000.0,0000.49,0000.25,0000.14
2021-11-29 11:46:00,,0828.4,5.00,0.00,29.2,28.4,00.0,38.2,30.9,11.3,0000.0,0000.41,0000.22,0000.14
2021-11-29 11:47:00,,0828.5,4.99,0.00,29.2,28.4,00.0,38.2,30.9,11.3,0000.0,0000.33,0000.21,0000.13
2021-11-29 11:48:00,,0828.4,5.00,0.00,29.2,28.4,00.0,38.2,30.9,11.3,0000.0,0000.31,0000.21,0000.14
2021-11-29 11:49:00,,0828.4,5.00,0.00,29.2,28.4,00.0,38.2,31.0,11.3,0000.0,0000.31,0000.21,0000.14
2021-11-29 11:50:00,,0828.5,5.01,0.00,29.3,28.4,00.0,38.2,31.0,11.3,0000.0,0000.29,0000.20,0000.14
2021-11-29 11:51:00,,0828.4,4.98,0.00,29.3,28.4,00.0,38.2,31.0,11.4,0000.0,0000.29,0000.20,0000.14
2021-11-29 11:52:00,,0828.4,5.01,0.00,29.2,28.4,00.0,38.2,30.9,11.5,0000.0,0000.30,0000.20,0000.14
2021-11-29 11:53:00,,0828.7,4.99,0.00,29.2,28.4,00.0,38.2,30.9,11.6,0000.0,0000.57,0000.22,0000.14
2021-11-29 11:54:00,,0828.8,5.01,0.00,29.2,28.4,00.0,38.2,30.9,11.6,0000.0,0000.71,0000.21,0000.14
2021-11-29 11:55:00,,0828.8,4.99,0.00,29.2,28.4,00.0,38.2,30.9,11.5,0000.0,0000.74,0000.22,0000.15
2021-11-29 11:56:00,,0828.6,5.01,0.00,29.2,28.3,00.0,38.2,30.9,11.4,0000.0,0000.86,0000.26,0000.15
2021-11-29 11:57:00,,0828.8,5.00,0.00,29.2,28.3,00.0,38.2,30.9,11.5,0000.0,0000.99,0000.27,0000.16
2021-11-29 11:58:00,,0829.0,4.99,0.00,29.2,28.3,00.0,38.2,30.9,11.4,0000.0,0001.04,0000.29,0000.16
2021-11-29 11:59:00,,0828.7,5.00,0.00,29.2,28.3,00.0,38.2,30.9,11.4,0000.0,0001.04,0000.29,0000.16
